RYR5217 EGSS-EPRZ

Flight info

Callsign RYR5217
Flight time 2h 2m
Altitude 35000
Route CLN P44 RATLO M197 REDFA L620 TACHA DCT KUMER DCT LASIS L986 LUXAR
Aircraft B738/M-SDE2E3FGHIRWXY/LB1

Departure

Time 2026-04-21 17:25
Airport London Stansted Airport (EGSS)

Arrival

Time 2026-04-21 19:28
Airport Rzeszów-Jasionka Airport (EPRZ)
Time Latitude Longitude Altitude Speed Heading
2026-04-21 16:36 51.89010 0.25755 356 ft 0 kts 43°
2026-04-21 17:08 51.88999 0.25738 359 ft 2 kts 43°
2026-04-21 17:09 51.88976 0.25702 356 ft 2 kts 44°
2026-04-21 17:09 51.88964 0.25683 356 ft 2 kts 46°
2026-04-21 17:09 51.88951 0.25675 358 ft 0 kts 314°
2026-04-21 17:13 51.88960 0.25661 361 ft 7 kts 314°
2026-04-21 17:14 51.88996 0.25593 355 ft 9 kts 311°
2026-04-21 17:14 51.89039 0.25516 359 ft 9 kts 313°
2026-04-21 17:14 51.89082 0.25443 355 ft 9 kts 314°
2026-04-21 17:14 51.89125 0.25374 355 ft 9 kts 315°
2026-04-21 17:15 51.89164 0.25291 355 ft 5 kts 287°
2026-04-21 17:15 51.89160 0.25252 358 ft 0 kts 248°
2026-04-21 17:15 51.89156 0.25247 358 ft 3 kts 229°
2026-04-21 17:16 51.89118 0.25191 355 ft 9 kts 222°
2026-04-21 17:16 51.89076 0.25127 355 ft 8 kts 225°
2026-04-21 17:16 51.89037 0.25066 356 ft 7 kts 223°
2026-04-21 17:16 51.89027 0.25051 360 ft 0 kts 221°
2026-04-21 17:17 51.89025 0.25049 361 ft 0 kts 221°
2026-04-21 17:17 51.88995 0.25004 358 ft 15 kts 222°
2026-04-21 17:17 51.88896 0.24855 358 ft 20 kts 223°
2026-04-21 17:18 51.88794 0.24703 355 ft 20 kts 223°
2026-04-21 17:18 51.88696 0.24556 351 ft 19 kts 223°
2026-04-21 17:18 51.88600 0.24414 356 ft 18 kts 223°
2026-04-21 17:18 51.88509 0.24278 354 ft 18 kts 223°
2026-04-21 17:19 51.88422 0.24143 355 ft 17 kts 222°
2026-04-21 17:19 51.88336 0.24016 351 ft 16 kts 221°
2026-04-21 17:19 51.88255 0.23891 351 ft 16 kts 223°
2026-04-21 17:19 51.88174 0.23771 347 ft 15 kts 223°
2026-04-21 17:20 51.88099 0.23659 346 ft 15 kts 221°
2026-04-21 17:20 51.88026 0.23551 351 ft 14 kts 223°
2026-04-21 17:20 51.87957 0.23446 347 ft 13 kts 223°
2026-04-21 17:20 51.87890 0.23345 348 ft 13 kts 223°
2026-04-21 17:21 51.87826 0.23248 347 ft 13 kts 223°
2026-04-21 17:21 51.87761 0.23155 351 ft 12 kts 225°
2026-04-21 17:21 51.87733 0.23048 346 ft 5 kts 283°
2026-04-21 17:21 51.87766 0.22969 348 ft 10 kts 304°
2026-04-21 17:22 51.87769 0.22881 342 ft 17 kts 244°
2026-04-21 17:22 51.87617 0.22641 338 ft 28 kts 223°
2026-04-21 17:22 51.87488 0.22444 340 ft 4 kts 224°
2026-04-21 17:22 51.87466 0.22409 340 ft 9 kts 224°
2026-04-21 17:23 51.87404 0.22287 334 ft 16 kts 256°
2026-04-21 17:23 51.87423 0.22171 334 ft 3 kts 305°
2026-04-21 17:23 51.87433 0.22150 335 ft 0 kts 307°
2026-04-21 17:24 51.87435 0.22146 338 ft 6 kts 308°
2026-04-21 17:24 51.87512 0.22028 335 ft 6 kts 341°
2026-04-21 17:24 51.87530 0.22033 333 ft 9 kts 17°
2026-04-21 17:24 51.87557 0.22067 334 ft 0 kts 44°
2026-04-21 17:25 51.87739 0.22341 337 ft 80 kts 43°
2026-04-21 17:25 51.88355 0.23264 351 ft 159 kts 42°
2026-04-21 17:25 51.89253 0.24609 959 ft 181 kts 42°
2026-04-21 17:26 51.90227 0.26078 1870 ft 202 kts 43°
2026-04-21 17:26 51.91192 0.27893 2554 ft 222 kts 63°
2026-04-21 17:26 51.91418 0.30409 3315 ft 238 kts 101°
2026-04-21 17:26 51.90900 0.33032 4114 ft 255 kts 111°
2026-04-21 17:27 51.90210 0.35820 4879 ft 278 kts 112°
2026-04-21 17:27 51.89477 0.38802 5894 ft 287 kts 111°
2026-04-21 17:27 51.88693 0.41867 6765 ft 305 kts 115°
2026-04-21 17:27 51.87753 0.45059 7555 ft 323 kts 116°
2026-04-21 17:28 51.86742 0.48407 8337 ft 339 kts 116°
2026-04-21 17:28 51.85692 0.51908 9103 ft 353 kts 116°
2026-04-21 17:28 51.84613 0.55556 9872 ft 366 kts 115°
2026-04-21 17:28 51.83515 0.59338 10631 ft 377 kts 112°
2026-04-21 17:29 51.82981 0.63509 11366 ft 382 kts 90°
2026-04-21 17:29 51.83110 0.67797 12144 ft 382 kts 86°
2026-04-21 17:29 51.83247 0.72022 12876 ft 382 kts 87°
2026-04-21 17:29 51.83405 0.76314 13623 ft 382 kts 86°
2026-04-21 17:30 51.83579 0.80594 14368 ft 382 kts 86°
2026-04-21 17:30 51.83747 0.84870 15112 ft 381 kts 86°
2026-04-21 17:30 51.83904 0.89143 15853 ft 380 kts 86°
2026-04-21 17:30 51.84056 0.93402 16598 ft 379 kts 86°
2026-04-21 17:31 51.84206 0.97648 17341 ft 378 kts 86°
2026-04-21 17:31 51.84355 1.01878 18081 ft 376 kts 86°
2026-04-21 17:31 51.84502 1.06089 18831 ft 374 kts 86°
2026-04-21 17:31 51.84646 1.10272 19498 ft 374 kts 86°
2026-04-21 17:32 51.84747 1.13073 19668 ft 382 kts 85°
2026-04-21 17:32 51.85735 1.18704 19961 ft 397 kts 65°
2026-04-21 17:32 51.86886 1.22774 20548 ft 398 kts 65°
2026-04-21 17:32 51.88027 1.26868 21111 ft 400 kts 66°
2026-04-21 17:33 51.89159 1.30993 21616 ft 403 kts 66°
2026-04-21 17:33 51.90291 1.35166 22068 ft 406 kts 66°
2026-04-21 17:33 51.91424 1.39374 22524 ft 409 kts 66°
2026-04-21 17:33 51.92562 1.43622 22985 ft 412 kts 66°
2026-04-21 17:34 51.93705 1.47900 23429 ft 415 kts 66°
2026-04-21 17:34 51.94839 1.52153 23853 ft 417 kts 66°
2026-04-21 17:34 51.95994 1.56491 24269 ft 420 kts 66°
2026-04-21 17:34 51.97157 1.60864 24677 ft 423 kts 66°
2026-04-21 17:35 51.98324 1.65263 25072 ft 425 kts 66°
2026-04-21 17:35 51.99415 1.69735 25447 ft 428 kts 72°
2026-04-21 17:35 52.00212 1.74409 25821 ft 430 kts 76°
2026-04-21 17:35 52.00931 1.79142 26187 ft 433 kts 76°
2026-04-21 17:36 52.01634 1.83904 26582 ft 434 kts 76°
2026-04-21 17:36 52.02341 1.88651 27077 ft 432 kts 76°
2026-04-21 17:36 52.03054 1.93377 27593 ft 430 kts 76°
2026-04-21 17:36 52.03773 1.98092 28048 ft 429 kts 76°
2026-04-21 17:37 52.04495 2.02787 28459 ft 429 kts 76°
2026-04-21 17:37 52.05219 2.07486 28879 ft 428 kts 76°
2026-04-21 17:37 52.05697 2.10592 29167 ft 428 kts 76°
2026-04-21 17:37 52.06649 2.16796 29731 ft 426 kts 76°
2026-04-21 17:38 52.07372 2.21522 30128 ft 426 kts 76°
2026-04-21 17:38 52.08084 2.26192 30503 ft 425 kts 76°
2026-04-21 17:38 52.08793 2.30859 30885 ft 424 kts 76°
2026-04-21 17:38 52.09489 2.35452 31256 ft 424 kts 76°
2026-04-21 17:39 52.10193 2.40107 31607 ft 423 kts 76°
2026-04-21 17:39 52.10893 2.44749 31951 ft 422 kts 76°
2026-04-21 17:39 52.11598 2.49385 32292 ft 422 kts 75°
2026-04-21 17:39 52.12401 2.53974 32613 ft 421 kts 73°
2026-04-21 17:40 52.13270 2.58523 32932 ft 421 kts 72°
2026-04-21 17:40 52.14157 2.63055 33241 ft 420 kts 72°
2026-04-21 17:40 52.15042 2.67595 33549 ft 419 kts 72°
2026-04-21 17:40 52.15918 2.72136 33838 ft 419 kts 72°
2026-04-21 17:41 52.16780 2.76660 34120 ft 418 kts 73°
2026-04-21 17:41 52.17635 2.81187 34396 ft 418 kts 73°
2026-04-21 17:41 52.18485 2.85714 34656 ft 418 kts 73°
2026-04-21 17:41 52.19338 2.90274 34666 ft 424 kts 73°
2026-04-21 17:42 52.21064 2.99538 34695 ft 436 kts 73°
2026-04-21 17:42 52.22843 3.09129 34676 ft 448 kts 73°
2026-04-21 17:43 52.23741 3.13987 34925 ft 446 kts 73°
2026-04-21 17:43 52.24633 3.18851 34993 ft 450 kts 75°
2026-04-21 17:43 52.25364 3.29060 35001 ft 459 kts 94°
2026-04-21 17:44 52.24827 3.37760 35012 ft 467 kts 96°
2026-04-21 17:44 52.24054 3.48351 35014 ft 473 kts 97°
2026-04-21 17:45 52.23291 3.59059 35007 ft 477 kts 96°
2026-04-21 17:45 52.22547 3.69802 34997 ft 475 kts 96°
2026-04-21 17:46 52.21809 3.80503 35000 ft 474 kts 96°
2026-04-21 17:46 52.21065 3.91172 35012 ft 474 kts 96°
2026-04-21 17:47 52.20315 4.01787 35007 ft 474 kts 96°
2026-04-21 17:47 52.19550 4.12457 35004 ft 474 kts 97°
2026-04-21 17:48 52.18775 4.23120 35012 ft 474 kts 97°
2026-04-21 17:48 52.17989 4.33798 35004 ft 474 kts 97°
2026-04-21 17:49 52.17193 4.44476 35016 ft 474 kts 97°
2026-04-21 17:49 52.16389 4.55138 35007 ft 475 kts 97°
2026-04-21 17:50 52.15573 4.65825 35005 ft 475 kts 97°
2026-04-21 17:50 52.14752 4.76433 35008 ft 475 kts 97°
2026-04-21 17:51 52.13918 4.87098 35003 ft 475 kts 97°
2026-04-21 17:51 52.13074 4.97764 35009 ft 475 kts 97°
2026-04-21 17:52 52.12220 5.08419 35010 ft 475 kts 97°
2026-04-21 17:52 52.11357 5.19077 35010 ft 475 kts 97°
2026-04-21 17:53 52.10484 5.29721 35014 ft 475 kts 97°
2026-04-21 17:53 52.09602 5.40358 35013 ft 475 kts 98°
2026-04-21 17:54 52.08716 5.50934 35004 ft 475 kts 98°
2026-04-21 17:54 52.07814 5.61577 35003 ft 475 kts 98°
2026-04-21 17:55 52.06902 5.72217 35007 ft 475 kts 98°
2026-04-21 17:55 52.05980 5.82857 35004 ft 475 kts 98°
2026-04-21 17:56 52.05055 5.93418 35010 ft 475 kts 98°
2026-04-21 17:56 52.04114 6.04057 35004 ft 475 kts 98°
2026-04-21 17:57 52.03164 6.14677 35009 ft 475 kts 98°
2026-04-21 17:57 52.02206 6.25284 35013 ft 475 kts 98°
2026-04-21 17:58 52.01237 6.35888 35007 ft 475 kts 98°
2026-04-21 17:58 52.00259 6.46496 35004 ft 475 kts 98°
2026-04-21 17:59 51.99273 6.57078 35008 ft 475 kts 98°
2026-04-21 17:59 51.98273 6.67700 35011 ft 475 kts 98°
2026-04-21 18:00 51.97273 6.78217 35004 ft 475 kts 99°
2026-04-21 18:00 51.96257 6.88800 35013 ft 475 kts 99°
2026-04-21 18:01 51.95232 6.99375 35006 ft 475 kts 99°
2026-04-21 18:01 51.94197 7.09953 35008 ft 475 kts 99°
2026-04-21 18:02 51.93153 7.20518 35008 ft 475 kts 99°
2026-04-21 18:02 51.92097 7.31103 35012 ft 475 kts 99°
2026-04-21 18:03 51.91032 7.41677 35014 ft 475 kts 99°
2026-04-21 18:03 51.89959 7.52236 35006 ft 475 kts 99°
2026-04-21 18:04 51.88875 7.62799 35004 ft 475 kts 99°
2026-04-21 18:04 51.87790 7.73279 35012 ft 475 kts 99°
2026-04-21 18:05 51.86688 7.83823 35004 ft 475 kts 99°
2026-04-21 18:05 51.85577 7.94365 35006 ft 475 kts 99°
2026-04-21 18:06 51.84563 8.03905 35005 ft 475 kts 99°
2026-04-21 18:06 51.83433 8.14440 35007 ft 475 kts 100°
2026-04-21 18:07 51.82294 8.24973 35008 ft 475 kts 100°
2026-04-21 18:07 51.81145 8.35501 35003 ft 475 kts 100°
2026-04-21 18:08 51.79986 8.46028 35009 ft 475 kts 100°
2026-04-21 18:08 51.78819 8.56539 35009 ft 475 kts 100°
2026-04-21 18:09 51.77644 8.67037 35004 ft 475 kts 100°
2026-04-21 18:09 51.76465 8.77476 35002 ft 475 kts 100°
2026-04-21 18:10 51.75270 8.87970 35010 ft 476 kts 100°
2026-04-21 18:10 51.74064 8.98478 35008 ft 476 kts 101°
2026-04-21 18:11 51.72848 9.08981 35015 ft 476 kts 101°
2026-04-21 18:11 51.71622 9.19487 35010 ft 476 kts 101°
2026-04-21 18:12 51.70387 9.29977 35008 ft 476 kts 101°
2026-04-21 18:12 51.69145 9.40455 35010 ft 476 kts 101°
2026-04-21 18:13 51.67890 9.50945 35006 ft 476 kts 101°
2026-04-21 18:13 51.67260 9.56175 36264 ft 474 kts 99°
2026-04-21 18:13 51.66637 9.61322 35986 ft 463 kts 99°
2026-04-21 18:14 51.65416 9.71366 35530 ft 452 kts 99°
2026-04-21 18:14 51.64812 9.76313 35421 ft 450 kts 99°
2026-04-21 18:15 51.63608 9.86128 35321 ft 448 kts 99°
2026-04-21 18:15 51.62392 9.95965 35279 ft 446 kts 99°
2026-04-21 18:16 51.61177 10.05719 35275 ft 445 kts 99°
2026-04-21 18:16 51.59952 10.15479 35280 ft 445 kts 99°
2026-04-21 18:17 51.58716 10.25264 35280 ft 447 kts 99°
2026-04-21 18:17 51.57474 10.35021 35285 ft 448 kts 99°
2026-04-21 18:18 51.56214 10.44844 35287 ft 449 kts 99°
2026-04-21 18:18 51.54945 10.54692 35282 ft 451 kts 99°
2026-04-21 18:19 51.53769 10.64574 35275 ft 450 kts 94°
2026-04-21 18:19 51.53584 10.74596 35280 ft 449 kts 89°
2026-04-21 18:20 51.53497 10.84616 35282 ft 449 kts 89°
2026-04-21 18:20 51.53381 10.94638 35288 ft 449 kts 89°
2026-04-21 18:21 51.53238 11.04662 35285 ft 448 kts 90°
2026-04-21 18:21 51.53081 11.14658 35281 ft 447 kts 90°
2026-04-21 18:22 51.52914 11.24644 35278 ft 446 kts 90°
2026-04-21 18:22 51.52740 11.34598 35275 ft 446 kts 90°
2026-04-21 18:23 51.52560 11.44469 35282 ft 445 kts 90°
2026-04-21 18:23 51.52370 11.54419 35281 ft 445 kts 90°
2026-04-21 18:24 51.52171 11.64352 35277 ft 445 kts 90°
2026-04-21 18:24 51.51964 11.74290 35282 ft 445 kts 90°
2026-04-21 18:25 51.51749 11.84229 35276 ft 445 kts 90°
2026-04-21 18:25 51.51525 11.94152 35277 ft 445 kts 90°
2026-04-21 18:26 51.51293 12.04093 35271 ft 445 kts 90°
2026-04-21 18:26 51.51053 12.14025 35273 ft 445 kts 90°
2026-04-21 18:27 51.50804 12.23962 35274 ft 445 kts 90°
2026-04-21 18:27 51.50548 12.33828 35275 ft 445 kts 90°
2026-04-21 18:28 51.50282 12.43768 35273 ft 445 kts 90°
2026-04-21 18:28 51.50008 12.53703 35274 ft 445 kts 90°
2026-04-21 18:29 51.49725 12.63638 35271 ft 445 kts 91°
2026-04-21 18:29 51.49434 12.73577 35267 ft 446 kts 91°
2026-04-21 18:30 51.49144 12.83448 35260 ft 446 kts 91°
2026-04-21 18:30 51.48884 12.91775 35261 ft 446 kts 91°
2026-04-21 18:31 51.48514 13.03309 35261 ft 446 kts 91°
2026-04-21 18:31 51.48241 13.11633 35260 ft 446 kts 91°
2026-04-21 18:32 51.47909 13.21568 35257 ft 446 kts 91°
2026-04-21 18:32 51.47571 13.31450 35254 ft 446 kts 91°
2026-04-21 18:33 51.47222 13.41409 35254 ft 446 kts 91°
2026-04-21 18:33 51.46864 13.51354 35250 ft 446 kts 91°
2026-04-21 18:34 51.46499 13.61293 35253 ft 446 kts 91°
2026-04-21 18:34 51.46125 13.71232 35254 ft 446 kts 91°
2026-04-21 18:35 51.45746 13.81170 35250 ft 447 kts 91°
2026-04-21 18:35 51.45355 13.91057 35250 ft 447 kts 91°
2026-04-21 18:36 51.44953 14.01006 35249 ft 447 kts 91°
2026-04-21 18:36 51.44544 14.10964 35250 ft 448 kts 91°
2026-04-21 18:37 51.44126 14.20938 35247 ft 448 kts 92°
2026-04-21 18:37 51.43700 14.30922 35243 ft 448 kts 92°
2026-04-21 18:38 51.43265 14.40887 35242 ft 449 kts 92°
2026-04-21 18:38 51.42821 14.50874 35242 ft 449 kts 92°
2026-04-21 18:39 51.42369 14.60855 35241 ft 449 kts 92°
2026-04-21 18:39 51.41908 14.70841 35241 ft 449 kts 92°
2026-04-21 18:40 51.41442 14.80758 35239 ft 450 kts 92°
2026-04-21 18:40 51.41043 14.89131 35241 ft 450 kts 92°
2026-04-21 18:41 51.39889 15.00640 35234 ft 454 kts 105°
2026-04-21 18:41 51.37854 15.10235 35235 ft 455 kts 106°
2026-04-21 18:42 51.35804 15.19830 35239 ft 455 kts 106°
2026-04-21 18:42 51.33775 15.29435 35235 ft 456 kts 106°
2026-04-21 18:43 51.31763 15.38993 35233 ft 456 kts 106°
2026-04-21 18:43 51.29734 15.48601 35238 ft 456 kts 106°
2026-04-21 18:44 51.27696 15.58202 35239 ft 456 kts 106°
2026-04-21 18:44 51.25650 15.67801 35227 ft 457 kts 106°
2026-04-21 18:45 51.23591 15.77403 35233 ft 457 kts 106°
2026-04-21 18:45 51.21524 15.87004 35230 ft 458 kts 106°
2026-04-21 18:46 51.19448 15.96598 35221 ft 458 kts 106°
2026-04-21 18:46 51.17361 16.06203 35217 ft 458 kts 107°
2026-04-21 18:47 51.15268 16.15787 35219 ft 459 kts 107°
2026-04-21 18:47 51.13162 16.25387 35225 ft 459 kts 107°
2026-04-21 18:48 51.11049 16.34979 35221 ft 459 kts 107°
2026-04-21 18:48 51.08928 16.44568 35218 ft 460 kts 107°
2026-04-21 18:49 51.06816 16.54164 35213 ft 460 kts 106°
2026-04-21 18:49 51.05111 16.62163 35222 ft 460 kts 106°
2026-04-21 18:50 51.02728 16.73369 35219 ft 460 kts 106°
2026-04-21 18:50 51.00663 16.82994 35218 ft 461 kts 106°
2026-04-21 18:51 50.98582 16.92621 35216 ft 461 kts 107°
2026-04-21 18:51 50.96493 17.02236 35217 ft 461 kts 107°
2026-04-21 18:52 50.94393 17.11854 35214 ft 462 kts 107°
2026-04-21 18:52 50.92283 17.21477 35212 ft 462 kts 107°
2026-04-21 18:53 50.90166 17.31087 35210 ft 462 kts 107°
2026-04-21 18:53 50.88035 17.40714 35207 ft 463 kts 107°
2026-04-21 18:54 50.85898 17.50330 35206 ft 463 kts 107°
2026-04-21 18:54 50.83751 17.59940 35203 ft 463 kts 107°
2026-04-21 18:55 50.81961 17.67921 35200 ft 463 kts 107°
2026-04-21 18:55 50.79448 17.79083 35198 ft 464 kts 107°
2026-04-21 18:56 50.77275 17.88686 35199 ft 464 kts 107°
2026-04-21 18:56 50.75087 17.98341 34813 ft 469 kts 107°
2026-04-21 18:56 50.73993 18.03169 34491 ft 463 kts 107°
2026-04-21 18:57 50.72915 18.07917 34100 ft 456 kts 107°
2026-04-21 18:57 50.71846 18.12616 33667 ft 453 kts 107°
2026-04-21 18:57 50.70781 18.17292 33237 ft 453 kts 107°
2026-04-21 18:57 50.69713 18.21972 32810 ft 453 kts 107°
2026-04-21 18:58 50.68644 18.26646 32393 ft 453 kts 107°
2026-04-21 18:58 50.67574 18.31312 31973 ft 453 kts 107°
2026-04-21 18:58 50.66503 18.35977 31570 ft 452 kts 107°
2026-04-21 18:58 50.65429 18.40637 31171 ft 451 kts 107°
2026-04-21 18:59 50.64333 18.45268 30768 ft 451 kts 108°
2026-04-21 18:59 50.63202 18.49876 30380 ft 451 kts 109°
2026-04-21 18:59 50.62055 18.54473 29940 ft 450 kts 109°
2026-04-21 18:59 50.60905 18.59059 29474 ft 450 kts 109°
2026-04-21 19:00 50.59754 18.63652 29015 ft 451 kts 109°
2026-04-21 19:00 50.58606 18.68237 28569 ft 452 kts 109°
2026-04-21 19:00 50.57453 18.72844 28126 ft 453 kts 109°
2026-04-21 19:00 50.56312 18.77405 27695 ft 454 kts 109°
2026-04-21 19:01 50.55138 18.82093 27261 ft 455 kts 109°
2026-04-21 19:01 50.53992 18.86664 26849 ft 456 kts 109°
2026-04-21 19:01 50.52823 18.91312 26427 ft 457 kts 109°
2026-04-21 19:01 50.51651 18.95968 26015 ft 458 kts 109°
2026-04-21 19:02 50.50473 19.00637 25606 ft 459 kts 109°
2026-04-21 19:02 50.49292 19.05305 25212 ft 460 kts 109°
2026-04-21 19:02 50.48110 19.09970 24820 ft 460 kts 109°
2026-04-21 19:02 50.46927 19.14626 24424 ft 457 kts 109°
2026-04-21 19:03 50.45751 19.19243 24039 ft 454 kts 109°
2026-04-21 19:03 50.44580 19.23833 23649 ft 452 kts 109°
2026-04-21 19:03 50.43428 19.28338 23192 ft 449 kts 109°
2026-04-21 19:03 50.42267 19.32871 22741 ft 446 kts 109°
2026-04-21 19:04 50.41113 19.37370 22302 ft 443 kts 109°
2026-04-21 19:04 50.39964 19.41841 21868 ft 441 kts 109°
2026-04-21 19:04 50.38817 19.46293 21429 ft 439 kts 109°
2026-04-21 19:04 50.37673 19.50728 21011 ft 437 kts 109°
2026-04-21 19:05 50.36536 19.55122 20593 ft 433 kts 109°
2026-04-21 19:05 50.35406 19.59487 20176 ft 431 kts 109°
2026-04-21 19:05 50.34279 19.63829 19776 ft 429 kts 110°
2026-04-21 19:05 50.33157 19.68142 19385 ft 427 kts 110°
2026-04-21 19:06 50.32038 19.72436 18995 ft 425 kts 110°
2026-04-21 19:06 50.30938 19.76650 18607 ft 422 kts 110°
2026-04-21 19:06 50.29830 19.80888 18186 ft 420 kts 110°
2026-04-21 19:06 50.28724 19.85109 17747 ft 418 kts 110°
2026-04-21 19:07 50.27621 19.89310 17314 ft 416 kts 110°
2026-04-21 19:07 50.26523 19.93489 16881 ft 414 kts 110°
2026-04-21 19:07 50.25430 19.97637 16457 ft 412 kts 110°
2026-04-21 19:07 50.24338 20.01772 16036 ft 411 kts 110°
2026-04-21 19:08 50.23247 20.05900 15623 ft 409 kts 110°
2026-04-21 19:08 50.22163 20.09991 15224 ft 408 kts 110°
2026-04-21 19:08 50.21081 20.14070 14819 ft 406 kts 110°
2026-04-21 19:08 50.20003 20.18127 14421 ft 404 kts 110°
2026-04-21 19:09 50.18925 20.22174 14015 ft 402 kts 110°
2026-04-21 19:09 50.17850 20.26203 13582 ft 400 kts 110°
2026-04-21 19:09 50.16783 20.30199 13205 ft 397 kts 110°
2026-04-21 19:09 50.15720 20.34169 12960 ft 397 kts 110°
2026-04-21 19:10 50.14657 20.38135 12727 ft 397 kts 110°
2026-04-21 19:10 50.13597 20.42094 12495 ft 395 kts 110°
2026-04-21 19:10 50.12816 20.46171 12264 ft 391 kts 98°
2026-04-21 19:10 50.12536 20.50363 12055 ft 388 kts 92°
2026-04-21 19:11 50.12311 20.54555 11833 ft 388 kts 93°
2026-04-21 19:11 50.12073 20.58739 11610 ft 387 kts 93°
2026-04-21 19:11 50.11825 20.62906 11392 ft 386 kts 93°
2026-04-21 19:11 50.11570 20.67063 11170 ft 385 kts 94°
2026-04-21 19:12 50.11399 20.69810 11032 ft 384 kts 94°
2026-04-21 19:12 50.11049 20.75352 10741 ft 383 kts 94°
2026-04-21 19:12 50.10785 20.79474 10528 ft 382 kts 94°
2026-04-21 19:12 50.10523 20.83534 10321 ft 381 kts 94°
2026-04-21 19:13 50.10257 20.87644 10178 ft 381 kts 94°
2026-04-21 19:13 50.09988 20.91769 10132 ft 381 kts 94°
2026-04-21 19:13 50.09719 20.95884 10131 ft 381 kts 94°
2026-04-21 19:13 50.09448 20.99996 10126 ft 382 kts 94°
2026-04-21 19:14 50.09267 21.02721 10117 ft 382 kts 94°
2026-04-21 19:14 50.08994 21.06836 10117 ft 382 kts 94°
2026-04-21 19:14 50.08628 21.12303 10123 ft 383 kts 94°
2026-04-21 19:14 50.08350 21.16426 10122 ft 383 kts 94°
2026-04-21 19:15 50.08162 21.19209 10127 ft 383 kts 94°
2026-04-21 19:15 50.07881 21.23342 10123 ft 383 kts 94°
2026-04-21 19:15 50.07599 21.27466 10123 ft 383 kts 94°
2026-04-21 19:15 50.07316 21.31592 10124 ft 383 kts 94°
2026-04-21 19:16 50.07032 21.35719 10124 ft 384 kts 94°
2026-04-21 19:16 50.06744 21.39854 10123 ft 384 kts 94°
2026-04-21 19:16 50.06457 21.43977 10122 ft 384 kts 94°
2026-04-21 19:16 50.06171 21.48053 10121 ft 384 kts 94°
2026-04-21 19:17 50.05587 21.56320 10121 ft 385 kts 94°
2026-04-21 19:17 50.05292 21.60463 9987 ft 386 kts 94°
2026-04-21 19:17 50.04996 21.64595 9710 ft 383 kts 94°
2026-04-21 19:18 50.04700 21.68697 9434 ft 381 kts 94°
2026-04-21 19:18 50.04404 21.72786 9151 ft 380 kts 94°
2026-04-21 19:18 50.04108 21.76872 8852 ft 378 kts 94°
2026-04-21 19:18 50.03812 21.80929 8554 ft 377 kts 94°
2026-04-21 19:19 50.03517 21.84935 8263 ft 368 kts 94°
2026-04-21 19:19 50.03230 21.88822 7965 ft 356 kts 94°
2026-04-21 19:19 50.02953 21.92579 7662 ft 345 kts 94°
2026-04-21 19:19 50.02681 21.96241 7374 ft 336 kts 94°
2026-04-21 19:20 50.02415 21.99802 7095 ft 327 kts 94°
2026-04-21 19:20 50.02159 22.03240 6808 ft 320 kts 93°
2026-04-21 19:20 50.02065 22.06651 6532 ft 312 kts 87°
2026-04-21 19:20 50.02103 22.09965 6233 ft 300 kts 86°
2026-04-21 19:21 50.02150 22.13163 5935 ft 291 kts 86°
2026-04-21 19:21 50.02180 22.16261 5638 ft 283 kts 87°
2026-04-21 19:21 50.02195 22.19281 5342 ft 275 kts 87°
2026-04-21 19:21 50.02202 22.22217 5053 ft 268 kts 87°
2026-04-21 19:22 50.02205 22.25068 4759 ft 259 kts 87°
2026-04-21 19:22 50.02229 22.27470 4531 ft 248 kts 81°
2026-04-21 19:22 50.02801 22.29882 4243 ft 233 kts 51°
2026-04-21 19:22 50.03981 22.31473 4063 ft 218 kts 28°
2026-04-21 19:23 50.05346 22.32224 4009 ft 202 kts 10°
2026-04-21 19:23 50.06719 22.32391 4022 ft 200 kts
2026-04-21 19:23 50.08115 22.32431 4017 ft 201 kts 360°
2026-04-21 19:23 50.09448 22.31827 3999 ft 203 kts 328°
2026-04-21 19:24 50.10341 22.30211 3984 ft 195 kts 296°
2026-04-21 19:24 50.10600 22.28215 4001 ft 186 kts 277°
2026-04-21 19:24 50.10652 22.26208 4004 ft 183 kts 275°
2026-04-21 19:24 50.10697 22.24302 3963 ft 169 kts 277°
2026-04-21 19:25 50.10737 22.22518 4023 ft 158 kts 275°
2026-04-21 19:25 50.10752 22.20808 3693 ft 155 kts 275°
2026-04-21 19:25 50.10750 22.19139 3165 ft 154 kts 275°
2026-04-21 19:25 50.10743 22.17465 2564 ft 155 kts 275°
2026-04-21 19:26 50.10762 22.15816 2221 ft 144 kts 277°
2026-04-21 19:26 50.10824 22.14232 1951 ft 148 kts 278°
2026-04-21 19:26 50.10860 22.12653 1746 ft 144 kts 276°
2026-04-21 19:26 50.10880 22.11112 1538 ft 141 kts 274°
2026-04-21 19:27 50.10898 22.09587 1348 ft 141 kts 272°
2026-04-21 19:27 50.10911 22.08070 1153 ft 139 kts 270°
2026-04-21 19:27 50.10927 22.06594 986 ft 137 kts 272°
2026-04-21 19:27 50.10954 22.05109 792 ft 136 kts 271°
2026-04-21 19:28 50.10976 22.03680 692 ft 120 kts 269°
2026-04-21 19:28 50.10986 22.02682 694 ft 42 kts 271°
2026-04-21 19:28 50.10988 22.02482 695 ft 18 kts 271°
2026-04-21 19:28 50.11011 22.02314 687 ft 5 kts 319°
2026-04-21 19:29 50.11041 22.02299 689 ft 5 kts 350°
2026-04-21 19:29 50.11080 22.02299 685 ft 6 kts
2026-04-21 19:29 50.11150 22.02301 688 ft 14 kts
2026-04-21 19:29 50.11244 22.02304 688 ft 13 kts
2026-04-21 19:30 50.11319 22.02358 684 ft 13 kts 68°
2026-04-21 19:30 50.11323 22.02470 684 ft 4 kts 91°
2026-04-21 19:30 50.11322 22.02513 684 ft 4 kts 86°
2026-04-21 19:30 50.11330 22.02529 687 ft 1 kts 31°
2026-04-21 19:31 50.11354 22.02533 690 ft 6 kts
2026-04-21 19:31 50.11394 22.02534 683 ft 3 kts
2026-04-21 19:31 50.11406 22.02534 687 ft 2 kts
2026-04-21 19:31 50.11412 22.02535 687 ft 0 kts